When you browse on this site, cookies collect data to enhance your experience and personalize the content and advertising you see.
Visit our Privacy Policy to learn more. By continuing to use the site, you agree to this use of cookies and data.

Stündliche Wetter Tysovets'

Heute, 10 Juli, Freitag

Zeit Temperatur Niederschläge Wind Luftdruck Luftfeuchtigkeit
00:00 +17°C° 0 mm 2 m/S 739 mmHg 95%
01:00 +17°C° 0 mm 2 m/S 739 mmHg 94%
02:00 +16°C° 0 mm 2 m/S 739 mmHg 94%
03:00 +17°C° 0 mm 2 m/S 739 mmHg 89%
04:00 +17°C° 0 mm 2 m/S 739 mmHg 87%
05:00 +17°C° 0 mm 2 m/S 739 mmHg 86%
06:00 +17°C° 0 mm 2 m/S 739 mmHg 89%
07:00 +19°C° 0 mm 2 m/S 739 mmHg 89%
08:00 +22°C° 0 mm 1 m/S 739 mmHg 91%
09:00 +24°C° 0 mm 1 m/S 739 mmHg 83%
10:00 +26°C° 0 mm 2 m/S 740 mmHg 74%
11:00 +27°C° 0 mm 2 m/S 740 mmHg 72%
12:00 +28°C° 0 mm 3 m/S 740 mmHg 70%
13:00 +28°C° 0 mm 3 m/S 739 mmHg 69%
14:00 +28°C° 0 mm 3 m/S 739 mmHg 70%
15:00 +29°C° 0 mm 3 m/S 739 mmHg 71%
16:00 +29°C° 0 mm 4 m/S 739 mmHg 74%
17:00 +29°C° 0 mm 4 m/S 739 mmHg 76%
18:00 +28°C° 0 mm 4 m/S 738 mmHg 79%
19:00 +27°C° 0 mm 4 m/S 738 mmHg 84%
20:00 +26°C° 0 mm 3 m/S 738 mmHg 89%
21:00 +25°C° 0 mm 3 m/S 738 mmHg 92%
22:00 +24°C° 0 mm 3 m/S 738 mmHg 94%
23:00 +24°C° 0 mm 3 m/S 738 mmHg 94%

Morgen, 11 Juli, Samstag

Zeit Temperatur Niederschläge Wind Luftdruck Luftfeuchtigkeit
00:00 +22°C° 0 mm 3 m/S 738 mmHg 94%
01:00 +23°C° 0 mm 2 m/S 738 mmHg 86%
02:00 +22°C° 0 mm 3 m/S 738 mmHg 81%
03:00 +21°C° 0 mm 3 m/S 738 mmHg 85%
04:00 +20°C° 0 mm 3 m/S 737 mmHg 88%
05:00 +20°C° 0 mm 2 m/S 737 mmHg 87%
06:00 +20°C° 0 mm 2 m/S 737 mmHg 86%
07:00 +22°C° 0 mm 1 m/S 738 mmHg 90%
08:00 +22°C° 0 mm 0 m/S 738 mmHg 90%
09:00 +26°C° 0 mm 1 m/S 738 mmHg 88%
10:00 +27°C° 0 mm 2 m/S 738 mmHg 82%
11:00 +28°C° 0 mm 2 m/S 738 mmHg 78%
12:00 +29°C° 0 mm 3 m/S 738 mmHg 78%
13:00 +29°C° 0 mm 5 m/S 737 mmHg 83%
14:00 +29°C° 0 mm 5 m/S 737 mmHg 83%
15:00 +29°C° 0 mm 5 m/S 737 mmHg 83%
16:00 +28°C° 0 mm 6 m/S 736 mmHg 85%
17:00 +28°C° 0 mm 6 m/S 736 mmHg 85%
18:00 +28°C° 0 mm 5 m/S 736 mmHg 86%
19:00 +27°C° 0 mm 5 m/S 736 mmHg 88%
20:00 +26°C° 0 mm 4 m/S 736 mmHg 91%
21:00 +25°C° 0 mm 3 m/S 736 mmHg 93%
22:00 +25°C° 0 mm 3 m/S 736 mmHg 92%
23:00 +24°C° 0 mm 3 m/S 736 mmHg 94%

übermorgen, 12 Juli, Sonntag

Zeit Temperatur Niederschläge Wind Luftdruck Luftfeuchtigkeit
00:00 +23°C° 0 mm 2 m/S 736 mmHg 97%
01:00 +23°C° 0 mm 2 m/S 735 mmHg 95%
02:00 +21°C° 0 mm 4 m/S 736 mmHg 98%
03:00 +19°C° 0 mm 4 m/S 736 mmHg 99%
04:00 +17°C° 0 mm 4 m/S 736 mmHg 99%
05:00 +17°C° 0 mm 4 m/S 736 mmHg 98%
06:00 +15°C° 0 mm 5 m/S 736 mmHg 98%
07:00 +15°C° 0 mm 4 m/S 737 mmHg 97%
08:00 +14°C° 0 mm 5 m/S 737 mmHg 97%
09:00 +14°C° 0 mm 4 m/S 737 mmHg 97%
10:00 +14°C° 0 mm 5 m/S 737 mmHg 96%
11:00 +14°C° 0 mm 5 m/S 737 mmHg 97%
12:00 +14°C° 0 mm 5 m/S 737 mmHg 97%
13:00 +14°C° 0 mm 5 m/S 737 mmHg 97%
14:00 +14°C° 0 mm 5 m/S 737 mmHg 97%
15:00 +14°C° 0 mm 5 m/S 737 mmHg 97%
16:00 +14°C° 0 mm 5 m/S 737 mmHg 98%
17:00 +13°C° 0 mm 6 m/S 737 mmHg 98%
18:00 +13°C° 0 mm 6 m/S 738 mmHg 99%
19:00 +13°C° 0 mm 5 m/S 737 mmHg 99%
20:00 +11°C° 0.2 mm 6 m/S 738 mmHg 100%
21:00 +13°C° 0.1 mm 5 m/S 738 mmHg 100%
22:00 +12°C° 0.4 mm 5 m/S 738 mmHg 100%
23:00 +10°C° 0.1 mm 6 m/S 738 mmHg 99%

13 Juli, Montag

Zeit Temperatur Niederschläge Wind Luftdruck Luftfeuchtigkeit
00:00 +10°C° 0.6 mm 6 m/S 738 mmHg 100%
01:00 +10°C° 1.9 mm 6 m/S 737 mmHg 100%
02:00 +10°C° 0.6 mm 6 m/S 737 mmHg 99%
03:00 +10°C° 0.4 mm 5 m/S 737 mmHg 100%
04:00 +10°C° 0.8 mm 5 m/S 738 mmHg 100%
05:00 +10°C° 0.1 mm 5 m/S 737 mmHg 100%
06:00 +10°C° 0 mm 6 m/S 737 mmHg 99%
07:00 +10°C° 0 mm 5 m/S 737 mmHg 100%
08:00 +10°C° 0.7 mm 5 m/S 737 mmHg 100%
09:00 +11°C° 0.4 mm 6 m/S 737 mmHg 99%
10:00 +12°C° 0.1 mm 5 m/S 738 mmHg 98%
11:00 +13°C° 0 mm 5 m/S 738 mmHg 98%
12:00 +14°C° 0 mm 5 m/S 738 mmHg 96%
13:00 +15°C° 0 mm 6 m/S 738 mmHg 94%
14:00 +16°C° 0 mm 7 m/S 737 mmHg 90%
15:00 +17°C° 0 mm 7 m/S 737 mmHg 85%
16:00 +17°C° 0.3 mm 7 m/S 736 mmHg 86%
17:00 +17°C° 0 mm 7 m/S 737 mmHg 84%
18:00 +17°C° 0 mm 6 m/S 737 mmHg 84%
19:00 +16°C° 0 mm 5 m/S 737 mmHg 85%
20:00 +15°C° 0 mm 4 m/S 737 mmHg 90%
21:00 +15°C° 0 mm 4 m/S 737 mmHg 95%
22:00 +14°C° 0 mm 5 m/S 737 mmHg 96%
23:00 +13°C° 0 mm 4 m/S 737 mmHg 97%

14 Juli, Dienstag

Zeit Temperatur Niederschläge Wind Luftdruck Luftfeuchtigkeit
00:00 +13°C° 0 mm 5 m/S 737 mmHg 98%
01:00 +13°C° 0 mm 5 m/S 737 mmHg 97%
02:00 +13°C° 0 mm 5 m/S 737 mmHg 97%
03:00 +13°C° 0 mm 5 m/S 737 mmHg 96%
04:00 +13°C° 0 mm 5 m/S 736 mmHg 96%
05:00 +13°C° 0 mm 5 m/S 736 mmHg 97%
06:00 +13°C° 0 mm 5 m/S 736 mmHg 97%
07:00 +13°C° 0 mm 5 m/S 737 mmHg 97%
08:00 +14°C° 0 mm 6 m/S 737 mmHg 96%
09:00 +15°C° 0 mm 6 m/S 737 mmHg 94%
10:00 +16°C° 0 mm 6 m/S 737 mmHg 93%
11:00 +16°C° 0 mm 6 m/S 737 mmHg 92%
12:00 +17°C° 0 mm 6 m/S 737 mmHg 86%
13:00 +19°C° 0 mm 6 m/S 737 mmHg 83%
14:00 +19°C° 0 mm 5 m/S 737 mmHg 82%
15:00 +19°C° 0.3 mm 5 m/S 737 mmHg 90%
16:00 +19°C° 2.3 mm 4 m/S 736 mmHg 89%
17:00 +19°C° 0 mm 5 m/S 736 mmHg 88%
18:00 +19°C° 0.5 mm 5 m/S 736 mmHg 90%
19:00 +19°C° 0.1 mm 4 m/S 736 mmHg 88%
20:00 +18°C° 0 mm 3 m/S 736 mmHg 90%
21:00 +17°C° 0 mm 3 m/S 736 mmHg 94%
22:00 +16°C° 0 mm 3 m/S 736 mmHg 96%
23:00 +16°C° 0 mm 2 m/S 737 mmHg 97%

15 Juli, Mittwoch

Zeit Temperatur Niederschläge Wind Luftdruck Luftfeuchtigkeit
00:00 +15°C° 0 mm 2 m/S 737 mmHg 98%
01:00 +15°C° 0 mm 2 m/S 736 mmHg 98%
02:00 +14°C° 0 mm 2 m/S 737 mmHg 97%
03:00 +14°C° 0 mm 2 m/S 737 mmHg 97%
04:00 +14°C° 0 mm 2 m/S 737 mmHg 97%
05:00 +14°C° 0 mm 2 m/S 737 mmHg 96%
06:00 +14°C° 0 mm 2 m/S 737 mmHg 97%
07:00 +16°C° 0 mm 2 m/S 737 mmHg 96%
08:00 +17°C° 0 mm 2 m/S 737 mmHg 94%
09:00 +18°C° 0 mm 2 m/S 737 mmHg 94%
10:00 +19°C° 0 mm 2 m/S 737 mmHg 92%
11:00 +20°C° 0 mm 2 m/S 737 mmHg 89%
12:00 +21°C° 0 mm 2 m/S 737 mmHg 86%
13:00 +21°C° 0 mm 3 m/S 737 mmHg 85%
14:00 +21°C° 0 mm 3 m/S 737 mmHg 84%
15:00 +22°C° 0.7 mm 1 m/S 737 mmHg 82%
16:00 +23°C° 0 mm 1 m/S 736 mmHg 78%
17:00 +23°C° 0 mm 1 m/S 736 mmHg 77%
18:00 +22°C° 0 mm 1 m/S 736 mmHg 75%
19:00 +21°C° 0.5 mm 1 m/S 736 mmHg 86%
20:00 +19°C° 0 mm 0 m/S 736 mmHg 90%
21:00 +18°C° 0 mm 0 m/S 736 mmHg 86%
22:00 +18°C° 0 mm 0 m/S 736 mmHg 89%
23:00 +18°C° 0 mm 0 m/S 736 mmHg 90%
Mehr zeigen